This is the latest recevied weather packets stored in our database for station/object WA4IKQ. If no packets are shown the sender has not sent any weather packets the latest 10 day(s).
| Time | Temp. | Humidity | Pressure | Rain* | Wind** | Luminosity | Snow |
|---|---|---|---|---|---|---|---|
| 1777782792 | 20° C | 90% | 1014.6 hPa | 0 mm | 2.68 m/s, 333° | - | - |
| 1777782563 | 20° C | 90% | 1014.6 hPa | 0 mm | 2.68 m/s, 333° | - | - |
| 1777782200 | 20.56° C | 90% | 1014.2 hPa | 0 mm | 2.68 m/s, 339° | - | - |
| 1777781964 | 20.56° C | 90% | 1014.2 hPa | 0 mm | 2.68 m/s, 339° | - | - |
| 1777781892 | 20.56° C | 90% | 1014.2 hPa | 0 mm | 3.13 m/s, 300° | - | - |
| 1777781654 | 20.56° C | 90% | 1014.2 hPa | 0 mm | 3.13 m/s, 300° | - | - |
| 1777780987 | 21.11° C | 88% | 1013.8 hPa | 0 mm | 0.89 m/s, 32° | - | - |
| 1777780752 | 21.11° C | 88% | 1013.8 hPa | 0 mm | 0.89 m/s, 32° | - | - |
| 1777780385 | 21.11° C | 87% | 1013.5 hPa | 0 mm | 0.89 m/s, 302° | - | - |
| 1777780152 | 21.11° C | 87% | 1013.5 hPa | 0 mm | 0.89 m/s, 302° | - | - |
| 1777780099 | 21.67° C | 87% | 1013.4 hPa | 0 mm | 1.79 m/s, 37° | - | - |
| 1777779853 | 21.67° C | 87% | 1013.4 hPa | 0 mm | 1.79 m/s, 37° | - | - |
| 1777779198 | 22.22° C | 87% | 1013 hPa | 0 mm | 4.47 m/s, 314° | - | - |
| 1777778950 | 22.22° C | 87% | 1013 hPa | 0 mm | 4.47 m/s, 314° | - | - |
| 1777778719 | 22.78° C | 88% | 1012.7 hPa | 0 mm | 0.45 m/s, 239° | - | - |
| 1777778351 | 22.78° C | 88% | 1012.7 hPa | 0 mm | 0.45 m/s, 239° | - | - |
| 1777778053 | 22.22° C | 88% | 1012.7 hPa | 0 mm | 0.89 m/s, 221° | - | - |
| 1777778024 | 22.22° C | 88% | 1012.7 hPa | 0 mm | 0.45 m/s, 180° | - | - |
| 1777777754 | 22.22° C | 88% | 1012.7 hPa | 0 mm | 0.45 m/s, 180° | - | - |
| 1777777698 | 22.22° C | 88% | 1012.6 hPa | 0 mm | 2.24 m/s, 256° | - | - |
| 1777777459 | 22.22° C | 88% | 1012.6 hPa | 0 mm | 2.24 m/s, 256° | - | - |
| 1777777338 | 22.22° C | 87% | 1012.7 hPa | 0 mm | 0.89 m/s, 226° | - | - |
| 1777777218 | 22.22° C | 87% | 1012.6 hPa | 0 mm | 1.79 m/s, 229° | - | - |
| 1777777149 | 22.22° C | 87% | 1012.7 hPa | 0 mm | 0.89 m/s, 226° | - | - |
| 1777776849 | 22.22° C | 87% | 1012.6 hPa | 0 mm | 1.79 m/s, 229° | - | - |
* Rain latest hour (hover to see other rain measurements)
** Current wind speed in m/s (hover to see current wind gust speed)